Weather History for Barking Sands, HI

Change the Weather History Date:

Thursday, February 28, 2013

  Actual Average Record
Temperature  
Mean Temperature 72 °F -  
Max Temperature 81 °F 81 °F 87 °F (1951)
Min Temperature 64 °F 60 °F 54 °F (1958)
Cooling Degree Days 8    
Growing Degree Days 22 (Base 50)    
Moisture  
Dew Point 55 °F    
Average Humidity 55    
Maximum Humidity 65    
Minimum Humidity 42    
Precipitation  
Precipitation 0.00 in - - ()
Sea Level Pressure  
Sea Level Pressure 30.17 in    
Wind  
Wind Speed 5 mph (NW)    
Max Wind Speed 13 mph    
Max Gust Speed -    
Visibility 10 miles    
Events      
Averages and records for this station are not official NWS values.
T = Trace of Precipitation, MM = Missing Value Source: NWS Daily Summary

Daily Weather History Graph

Daily Weather History Graph

Search for Another Location

Airport:

Trip Planner

Search our weather history database for the weather conditions in past years. The results will help you decide how hot, cold, wet, or windy it might be!

Date:

Astronomy

Feb. 28, 2013 Rise Set
Actual Time 7:00 AM HST 6:42 PM HST
Civil Twilight 6:38 AM HST 7:05 PM HST
Nautical Twilight 6:12 AM HST 7:31 PM HST
Astronomical Twilight 5:46 AM HST 7:57 PM HST
Moon 9:48 PM HST (2/28) 8:46 AM HST (2/28)
Length of Visible Light 12h 27m
Length of Day
11h 42m
Waning Gibbous, 89% of the Moon is Illuminated
Feb 28
Waning Gibbous
Mar 4
Last Quarter
Mar 11
New
Mar 19
First Quarter
Mar 26
Full

Hourly Weather History & Observations

Time (HST) Temp. Heat Index Dew Point Humidity Pressure Visibility Wind Dir Wind Speed Gust Speed Precip Events Conditions
12:56 AM 66.9 °F - 53.1 °F 61% 30.17 in 10.0 mi ENE 4.6 mph - N/A   Clear
1:56 AM 66.0 °F - 53.1 °F 63% 30.16 in 10.0 mi ENE 4.6 mph - N/A   Clear
2:56 AM 66.0 °F - 54.0 °F 65% 30.15 in 10.0 mi ENE 4.6 mph - N/A   Clear
3:56 AM 64.0 °F - 52.0 °F 65% 30.14 in 10.0 mi Calm Calm - N/A   Clear
4:56 AM 64.9 °F - 53.1 °F 65% 30.15 in 10.0 mi NE 4.6 mph - N/A   Clear
5:56 AM 64.0 °F - 52.0 °F 65% 30.16 in 10.0 mi NNE 3.5 mph - N/A   Clear
6:56 AM 64.9 °F - 53.1 °F 65% 30.17 in 10.0 mi NNE 3.5 mph - N/A   Mostly Cloudy
7:56 AM 69.1 °F - 55.0 °F 61% 30.18 in 10.0 mi Calm Calm - N/A   Scattered Clouds
8:56 AM 75.9 °F - 55.9 °F 50% 30.18 in 10.0 mi WNW 4.6 mph - N/A   Mostly Cloudy
9:56 AM 75.0 °F - 59.0 °F 57% 30.20 in 10.0 mi NW 5.8 mph - N/A   Scattered Clouds
10:56 AM 77.0 °F - 57.9 °F 52% 30.21 in 10.0 mi North - - N/A   Mostly Cloudy
11:56 AM 78.1 °F - 57.9 °F 50% 30.19 in 10.0 mi NW 8.1 mph - N/A   Mostly Cloudy
12:56 PM 79.0 °F - 57.9 °F 48% 30.17 in 10.0 mi West 9.2 mph - N/A   Mostly Cloudy
1:56 PM 80.1 °F 80.2 °F 55.9 °F 43% 30.14 in 10.0 mi NW 12.7 mph - N/A   Mostly Cloudy
2:56 PM 81.0 °F 80.8 °F 55.9 °F 42% 30.13 in 10.0 mi NW 9.2 mph - N/A   Mostly Cloudy
3:56 PM 80.1 °F 80.2 °F 55.9 °F 43% 30.14 in 10.0 mi West 10.4 mph - N/A   Clear
4:56 PM 79.0 °F - 55.9 °F 45% 30.14 in 10.0 mi West 8.1 mph - N/A   Scattered Clouds
5:56 PM 78.1 °F - 57.9 °F 50% 30.14 in 10.0 mi WSW 10.4 mph - N/A   Clear
6:56 PM 75.9 °F - 59.0 °F 56% 30.17 in 10.0 mi West 9.2 mph - N/A   Clear
7:56 PM 75.9 °F - 57.0 °F 52% 30.18 in 10.0 mi Variable 4.6 mph - N/A   Mostly Cloudy
8:56 PM 73.9 °F - 51.1 °F 45% 30.20 in 10.0 mi Calm Calm - N/A   Clear
9:56 PM 69.1 °F - 52.0 °F 54% 30.22 in 10.0 mi Calm Calm - N/A   Clear
10:56 PM 69.1 °F - 52.0 °F 54% 30.23 in 10.0 mi Calm Calm - N/A   Clear
11:56 PM 66.9 °F - 52.0 °F 59% 30.22 in 10.0 mi Calm Calm - N/A   Clear